Location: Ardres
(50.8579°N, 1.9817°E)
Time: 20:47:04
(UTC+00:00)

Daily predictions for brighter satellites

Satellite Brightness Start Highest point End
(mag) Time Altitude Azimuth Time Altitude Azimuth Time Altitude Azimuth
COSMOS 2455 4.3 16:17:31 10° W 16:22:35 27° NNW 16:27:40 10° NNE
Cosmos 1862 Rocket 3.9 16:21:33 10° SSE 16:25:44 47° E 16:30:00 10° NNE
RESURS DK-1 2.7 16:21:49 10° SW 16:25:55 65° NW 16:30:03 10° NNE
STARLINK-46 2.6 16:24:25 10° W 16:27:05 60° N 16:29:44 10° ENE
Cosmos 1743 4.2 16:27:51 10° NNE 16:30:33 18° ENE 16:33:16 10° ESE
SMAP 3.5 16:26:58 10° SE 16:31:19 41° ENE 16:35:43 10° N
SL-16 R/B 3.3 16:28:14 10° SSE 16:32:46 25° ESE 16:37:19 10° NE
Cosmos 1536 2.9 16:29:01 10° N 16:33:00 55° ENE 16:36:54 10° SSE
Feng Yun 1-1 Rocket 4.4 16:30:06 10° SE 16:35:16 50° ENE 16:40:31 10° N
CZ-4B R/B 2.1 16:34:29 10° N 16:37:57 58° WNW 16:41:20 10° SSW
Cosmos 2237 Rocket 2.3 16:34:20 10° SSW 16:39:58 65° ESE 16:45:37 10° NE
Cosmos 1707 Rocket 4.2 16:36:12 10° SSW 16:40:38 60° WNW 16:45:05 10° N
Lacrosse 5 rocket 1.5 16:36:50 10° WSW 16:41:07 66° NNW 16:44:56 11° NE
Cosmos 2344 4.5 16:33:00 10° NW 16:41:09 45° NNE 16:51:57 10° E
ALOS 3.3 16:39:01 10° S 16:43:34 52° W 16:48:09 10° NNW
Cosmos 2322 Rocket 4.2 16:40:10 10° WNW 16:44:04 19° NNW 16:48:01 10° N
Cosmos 1500 3.5 16:41:14 10° NNW 16:44:59 69° W 16:48:43 10° S
Cosmos 1943 Rocket 2.9 16:40:01 10° NNW 16:45:01 31° NE 16:49:59 10° ESE
Meteor 2-6 Rocket 4.5 16:40:12 10° SSW 16:45:34 70° WNW 16:51:04 10° N
Cosmos 1812 2.7 16:41:43 10° S 16:45:34 79° E 16:49:27 10° NNE
SL-4 R/B 1.8 16:41:58 10° W 16:45:41 78° N 16:49:31 11° E
NOSS 3-1 (C) 4.3 16:39:12 10° NW 16:45:47 42° NNE 16:53:24 10° E
Cosmos 2219 Rocket 2.9 16:41:04 10° SW 16:46:34 54° NW 16:52:08 10° NNE
Cosmos 2333 Rocket 2.9 16:43:03 10° SW 16:48:40 52° NW 16:54:20 10° NNE
Okean O Rocket 2.4 16:45:06 10° S 16:49:22 57° WSW 16:53:41 10° NNW
USA 267 3.3 16:44:32 10° ESE 16:51:06 89° NE 16:57:41 10° WNW
Cosmos 292 Rocket 4.0 16:50:08 10° NNW 16:55:02 80° WSW 16:59:53 10° SSE
SL-16 R/B 4.3 16:52:13 10° WNW 16:55:37 16° NNW 16:59:02 10° N
Radarsat Rocket 4.4 16:50:03 10° S 16:56:00 65° WSW 17:01:49 10° NNW
Envisat 3.4 16:51:47 10° SE 16:56:31 41° ENE 17:01:15 10° N
USA 229 DEB 4.2 16:50:04 10° NW 16:56:51 45° NNE 17:03:56 10° E
USA 229 4.2 16:50:10 10° NW 16:56:56 45° NNE 17:04:00 10° E
Cosmos 2242 Rocket 3.7 16:53:05 10° S 16:57:36 63° E 17:02:09 10° NNE
Aureole 1 Rocket 2.7 16:55:16 10° S 16:58:10 42° ESE 17:00:55 14° NE
Cosmos 1908 Rocket 3.5 16:54:00 10° N 16:58:24 71° ENE 17:02:44 10° SSE
Cosmos 1092 Rocket 4.1 16:52:39 10° SSE 16:58:44 53° E 17:04:46 10° NNE
Okean 1-7 3.7 16:55:27 10° SSE 16:59:22 34° E 17:03:20 10° NNE
Cosmos 2251 Rocket 3.7 16:54:07 10° SSW 16:59:25 75° WNW 17:04:43 10° NNE
NOSS 3-4 (A) 4.3 16:55:40 10° W 17:01:29 42° NNW 17:07:24 12° NE
NOSS 3-4 (C) 4.3 16:55:46 10° W 17:01:34 42° NNW 17:07:30 12° NE
NOSS 3-1 (A) 4.4 16:55:35 10° NW 17:02:04 40° NNE 17:08:59 12° E
Cosmos 405 Rocket 4.1 17:00:32 10° NNE 17:02:41 17° ENE 17:02:41 17° ENE
Cosmos 407 Rocket 4.1 16:59:50 10° S 17:04:35 37° ESE 17:08:45 13° NE
CSL-04 Rocket 4.5 17:00:51 10° ESE 17:05:13 27° ENE 17:09:38 10° N
COSMO-SKYMED 1 3.9 17:05:20 17° ENE 17:07:05 21° E 17:10:21 10° SE
Cosmos 1980 3.9 17:06:26 10° SW 17:12:05 74° WNW 17:17:47 10° NNE
YAOGAN 1 3.5 17:10:05 10° ESE 17:13:37 25° ENE 17:17:10 10° N
CZ-4 R/B 2.1 17:11:24 10° ESE 17:14:40 27° ENE 17:17:57 10° N
Okean-O 2.6 17:10:31 10° SSE 17:14:51 57° ENE 17:19:13 10° N
Cosmos 1441 Rocket 3.0 17:11:19 10° N 17:15:09 79° ENE 17:18:54 10° SSE
FALCON 9 DEB 3.2 17:14:38 10° WSW 17:18:08 71° SSE 17:19:57 26° ENE
H-2A R/B 2.7 17:15:31 10° S 17:19:12 80° W 17:22:55 10° NNW
Cosmos 2297 3.9 17:15:49 10° NNW 17:21:31 74° WSW 17:27:10 10° SSE
NOAA 12 4.0 17:16:35 10° SSE 17:21:51 74° ENE 17:27:08 10° NNW
Cosmos 921 Rocket 3.1 17:18:13 10° NNW 17:22:31 80° WSW 17:26:52 10° SSE
Cosmos 1975 3.1 17:23:05 10° N 17:26:54 42° ENE 17:30:44 10° SE
Cosmos 1666 3.5 17:25:11 10° NNW 17:28:50 52° W 17:32:28 10° S
SeaSat 1 4.1 17:29:56 16° NNE 17:29:56 16° NNE 17:32:50 10° N
S3M 4.2 17:24:24 10° N 17:30:20 43° ENE 17:36:09 10° SE
Exosat Rocket 4.2 17:26:43 10° SW 17:31:39 52° NW 17:36:48 10° NNE
Lacrosse 4 Rocket 3.2 17:29:05 10° N 17:31:12 16° NNE 17:31:12 16° NNE
Nadezhda 4 Rocket 4.5 17:25:40 10° SSW 17:31:56 64° WNW 17:38:13 10° N
Lacrosse 5 3.4 17:35:13 10° SSE 17:38:34 18° SE 17:38:59 18° ESE
Ariane Rocket 4.1 17:40:50 23° NE 17:40:50 23° NE 17:43:56 10° N
ATLAS 2AS CENTAUR R/B 4.0 17:32:42 10° W 17:40:00 36° NNW 17:45:11 18° NE
Cosmos 1553 Rocket 4.0 17:34:45 10° N 17:41:07 65° ENE 17:47:29 10° SSE
Cosmos 2151 Rocket 4.0 17:37:35 10° N 17:41:41 36° ENE 17:45:46 10° SE
COSMOS 2428 4.3 17:37:14 10° W 17:42:05 28° NW 17:46:58 10° NNE
YAOGAN 6 2.5 17:38:50 10° SSE 17:42:22 64° ENE 17:45:58 10° N
Uosat 12 SS-18 rocket 4.0 17:37:52 10° NW 17:42:52 78° NE 17:46:22 16° SE
STARLINK-60 3.0 17:39:43 10° WSW 17:43:06 77° NNW 17:43:50 51° ENE
Cosmos 1867 3.9 17:39:44 10° NW 17:45:10 67° SW 17:50:33 10° SSE
Cosmos 1763 Rocket 4.2 17:41:54 10° N 17:46:24 30° NE 17:46:31 30° NE
Meteor 2-9 Rocket 4.2 17:41:54 10° N 17:47:45 64° ENE 17:53:28 10° SSE
Cosmos 489 Rocket 4.5 17:42:11 10° NNW 17:48:36 88° ENE 17:54:59 10° SSE
CZ-4C R/B 3.4 17:46:15 10° SSE 17:49:23 21° ESE 17:49:23 21° ESE
STARLINK-52 3.1 17:47:19 10° WSW 17:50:51 88° SSE 17:51:25 60° ENE
STARLINK-67 2.7 17:49:25 10° WNW 17:52:00 72° WSW 17:52:00 72° WSW
Cosmos 2026 Rocket 3.9 17:46:57 10° S 17:53:00 90° W 17:59:09 10° N
Cosmos 1782 Rocket 4.2 17:49:19 10° NNW 17:53:36 57° W 17:57:50 10° S
NOAA 11 4.3 17:48:32 10° SE 17:53:46 49° ENE 17:59:02 10° N
SKYMED 2 3.6 17:53:59 36° NE 17:55:32 57° E 17:59:48 10° S
COBE Rocket 4.4 17:51:27 10° N 17:56:01 57° WNW 18:00:39 10° SSW
Cosmos 1943 4.3 17:53:05 10° SSE 17:56:42 25° ESE 17:56:42 25° ESE
USA 215 3.2 17:54:37 28° ENE 17:58:21 88° NNW 18:04:55 10° WSW
ATLAS 5 CENTAUR R/B 1.8 17:56:35 10° WSW 17:58:07 42° W 17:58:07 42° W
STARLINK-29 3.0 17:55:26 10° WSW 17:58:59 82° NNW 17:59:15 73° NE
Cosmos 2360 Rocket 4.5 17:56:52 10° NW 17:59:40 14° NNW 18:02:28 10° N
STARLINK-46 3.9 17:58:49 10° WNW 18:00:35 34° NW 18:00:35 34° NW
Cosmos 1190 Rocket 3.9 17:56:45 10° SSW 18:01:57 89° ESE 18:04:55 26° NNE
Cosmos 676 Rocket 3.9 17:59:39 10° S 18:04:44 61° ESE 18:06:19 41° NE
Cosmos 614 Rocket 4.0 18:00:12 10° SSW 18:05:17 74° WNW 18:08:23 24° NNE
Cosmos 1656 Rocket 3.9 18:00:24 10° NNW 18:05:35 42° NE 18:06:00 42° ENE
Cosmos 1743 3.7 18:02:53 10° NNW 18:06:37 47° W 18:10:21 10° SSW
Cosmos 2369 Rocket 2.1 18:01:19 10° NNW 18:07:00 82° ENE 18:12:40 10° SSE
BREEZE-M R/B 3.2 18:02:44 10° W 18:07:30 49° SSW 18:08:07 42° SSE
Okean 2 Rocket 3.0 18:03:56 10° N 18:08:27 88° WSW 18:12:58 10° S
Meteor 1-18 Rocket 4.1 18:02:53 10° S 18:08:35 89° WNW 18:13:49 12° NNE
Cosmos 1954 Rocket 3.9 18:05:42 10° S 18:10:49 64° ESE 18:12:08 47° NE
Cosmos 1417 Rocket 4.5 18:06:53 10° N 18:13:02 82° W 18:19:12 10° S
Cosmos 2221 Rocket 3.4 18:11:18 10° S 18:15:46 84° E 18:16:58 48° NNE
SL-16 R/B 2.5 18:10:47 10° SW 18:16:26 66° WNW 18:19:41 26° NNE
Cosmos 2315 Rocket 4.1 18:11:08 10° N 18:17:16 48° ENE 18:18:41 41° ESE
Cosmos 883 Rocket 4.5 18:12:02 10° N 18:18:18 59° ENE 18:24:29 10° SSE
USA 116 4.3 18:17:14 47° NE 18:18:36 64° E 18:23:32 10° S
Cosmos 1174 4.4 18:14:32 10° SW 18:19:01 51° NW 18:19:44 44° N
IRIDIUM 104 4.2 18:15:21 10° SSE 18:20:27 60° E 18:20:58 57° ENE
Lacrosse 5 rocket 2.4 18:16:58 10° WNW 18:20:34 34° NNW 18:20:34 34° NNW
Cosmos 1603 3.8 18:18:13 10° S 18:23:43 52° ESE 18:23:46 51° ESE
Cosmos 2237 Rocket 3.7 18:19:30 10° WSW 18:24:29 30° NW 18:28:15 16° N
STARLINK-43 4.1 18:21:19 10° SW 18:24:11 47° SSW 18:24:11 47° SSW
SL-4 R/B 2.1 18:21:31 10° WNW 18:25:07 71° SW 18:25:07 71° SW
Cosmos 1943 Rocket 2.6 18:23:36 10° NW 18:29:11 62° WSW 18:34:40 10° SSE
IRIDIUM 114 4.2 18:24:23 10° S 18:29:34 71° E 18:30:06 66° NE
Cosmos 1140 Rocket 3.7 18:26:42 10° SW 18:31:48 67° WNW 18:33:39 39° N
Cosmos 2219 Rocket 4.4 18:28:19 10° WNW 18:31:53 17° NNW 18:35:04 11° N
Meteor 2-8 Rocket 4.3 18:26:22 10° N 18:32:25 64° ENE 18:34:17 44° SE
Cosmos 2333 Rocket 4.4 18:30:40 10° WNW 18:34:21 17° NNW 18:37:30 12° N
Cosmos 1241 Rocket 4.3 18:28:59 10° SSW 18:35:20 79° SE 18:36:40 58° NE
NOSS 3-1 (C) 4.0 18:30:04 10° NW 18:37:26 83° SW 18:43:01 24° SE
IRIDIUM 103 4.2 18:33:31 10° S 18:38:44 84° E 18:39:16 72° NNE
Cosmos 405 Rocket 4.1 18:35:44 10° NNW 18:44:10 - S 18:38:04 33° NW
Cosmos 468 Rocket 3.8 18:36:02 10° NNW 18:41:15 89° ENE 18:41:23 85° SE
COSMO-SKYMED 1 3.3 18:42:33 42° NNW 18:43:33 51° WNW 18:47:44 10° SW
Cosmos 1300 Rocket 4.2 18:40:26 10° NNW 18:44:39 52° W 18:48:49 10° S
CSL-04 Rocket 4.1 18:40:03 10° S 18:45:14 58° WSW 18:50:30 10° NNW
Meteor 2-13 Rocket 4.5 18:39:17 10° SSW 18:45:20 77° W 18:50:03 18° N
Meteor 2-4 Rocket 3.7 18:40:00 10° S 18:45:51 90° W 18:47:11 56° NNE
Cosmos 1655 Rocket 4.1 18:41:25 10° SSW 18:47:42 74° W 18:53:53 10° N
USA 229 DEB 4.0 18:41:08 10° NW 18:48:19 72° SW 18:52:32 28° SSE
USA 229 4.0 18:41:14 10° NW 18:48:24 73° SW 18:52:32 29° SSE
YAOGAN 1 3.6 18:45:23 10° S 18:49:31 44° W 18:53:41 10° NNW
CZ-4 R/B 3.1 18:46:11 10° SSW 18:49:39 31° W 18:53:07 10° NNW
NOSS 3-1 (A) 3.9 18:46:31 10° NW 18:53:53 89° NE 18:56:30 49° SE
Cosmos 2344 4.3 18:47:34 10° NW 18:56:58 88° SW 19:05:28 25° SE
IRIDIUM 106 4.5 18:51:52 10° SSW 18:57:04 71° W 18:57:27 68° NW
SeaSat 1 4.3 19:09:43 21° NNW 19:09:43 21° NNW 19:11:24 10° NNW
Lacrosse 4 Rocket 4.0 19:06:58 10° NNW 19:07:31 13° NNW 19:07:31 13° NNW
Lacrosse 5 3.4 19:15:45 10° SW 19:18:13 29° SW 19:18:13 29° SW
Cosmos 2266 Rocket 4.4 19:16:37 10° SSW 19:22:57 61° WNW 19:24:58 42° NNW
ATLAS 2AS CENTAUR R/B 4.0 19:26:02 10° NW 19:32:36 33° N 19:32:36 33° N
CZ-4C R/B 3.7 19:32:25 10° SW 19:34:37 27° SW 19:34:37 27° SW
USA 215 3.8 19:41:58 52° NW 19:41:58 52° NW 19:47:29 10° W
SL-16 R/B 4.4 19:57:40 10° WNW 20:01:35 19° NW 20:01:35 19° NW
